Change the Weather History Date:

Monday, April 8, 2013

  Actual Average Record
Temperature  
Mean Temperature 30 °F 37 °F  
Max Temperature 46 °F 48 °F 73 °F (1988)
Min Temperature 13 °F 26 °F 0 °F (2007)
Degree Days  
Heating Degree Days 35 28  
Month to date heating degree days 201 233  
Since 1 July heating degree days 6828 7108  
Cooling Degree Days 0 0  
Month to date cooling degree days 0 0  
Year to date cooling degree days 0 0  
Moisture  
Dew Point 23 °F    
Average Humidity 81    
Maximum Humidity 96    
Minimum Humidity 65    
Precipitation  
Precipitation 0.12 in 0.06 in 2.03 in (1975)
Month to date precipitation 0.15 0.39  
Year to date precipitation 1.82 2.26  
Sea Level Pressure  
Sea Level Pressure 29.77 in    
Wind  
Wind Speed 11 mph (NE)    
Max Wind Speed 24 mph    
Max Gust Speed 36 mph    
Visibility 5 miles    
Events Fog , Snow    
T = Trace of Precipitation, MM = Missing Value Source: NWS Daily Summary

Daily Weather History Graph

Daily Weather History Graph

Search for Another Location

Airport or City:

Trip Planner

Search our weather history database for the weather conditions in past years. The results will help you decide how hot, cold, wet, or windy it might be!

Date:

Astronomy

Apr. 08, 2013 Rise Set
Actual Time 6:23 AM MDT 7:30 PM MDT
Civil Twilight 5:53 AM MDT 7:59 PM MDT
Nautical Twilight 5:18 AM MDT 8:34 PM MDT
Astronomical Twilight 4:41 AM MDT 9:12 PM MDT
Moon 5:17 AM MDT (4/8) 6:05 PM MDT (4/8)
Length of Visible Light 14h 05m
Length of Day
13h 06m
Waning Crescent, 3% of the Moon is Illuminated
Apr 8
Waning Crescent
Apr 10
New
Apr 18
First Quarter
Apr 25
Full
May 2
Last Quarter

Hourly Weather History & Observations

Time (MDT) Temp. Windchill Dew Point Humidity Pressure Visibility Wind Dir Wind Speed Gust Speed Precip Events Conditions
12:53 AM 35.1 °F - 32.0 °F 89% 29.54 in 10.0 mi Calm Calm - N/A   Clear
1:53 AM 34.0 °F 31.0 °F 32.0 °F 92% 29.58 in 10.0 mi Variable 3.5 mph - N/A   Clear
2:53 AM 30.0 °F 24.1 °F 28.9 °F 96% 29.58 in 10.0 mi NW 5.8 mph - N/A   Clear
3:53 AM 30.9 °F 27.5 °F 28.9 °F 92% 29.58 in 10.0 mi NW 3.5 mph - N/A   Clear
4:53 AM 28.9 °F 23.9 °F 27.0 °F 92% 29.57 in 10.0 mi NNE 4.6 mph - N/A   Clear
5:53 AM 28.0 °F 21.7 °F 27.0 °F 96% 29.59 in 10.0 mi NNE 5.8 mph - N/A   Clear
6:53 AM 28.0 °F 22.8 °F 26.1 °F 92% 29.67 in 6.0 mi NNE 4.6 mph - N/A   Clear
7:53 AM 36.0 °F 31.1 °F 33.1 °F 89% 29.64 in 7.0 mi NNE 5.8 mph - N/A   Clear
8:53 AM 39.9 °F 35.1 °F 34.0 °F 79% 29.64 in 10.0 mi NE 6.9 mph - N/A   Clear
9:24 AM 41.0 °F - 33.8 °F 76% 29.68 in 10.0 mi Calm Calm - N/A   Mostly Cloudy
9:53 AM 44.1 °F 41.5 °F 34.0 °F 68% 29.65 in 10.0 mi North 4.6 mph - N/A   Scattered Clouds
10:11 AM 44.6 °F 40.7 °F 33.8 °F 66% 29.69 in 10.0 mi NE 6.9 mph - N/A   Mostly Cloudy
10:23 AM 44.6 °F 43.1 °F 33.8 °F 66% 29.69 in 10.0 mi Variable 3.5 mph - N/A   Scattered Clouds
10:30 AM 44.6 °F - 33.8 °F 66% 29.69 in 10.0 mi Calm Calm - N/A   Mostly Cloudy
10:53 AM 44.1 °F 38.6 °F 33.1 °F 65% 29.65 in 10.0 mi NE 10.4 mph - N/A   Overcast
11:17 AM 39.2 °F 30.8 °F 33.8 °F 81% 29.72 in 10.0 mi NE 15.0 mph - N/A   Overcast
11:26 AM 37.4 °F 29.8 °F 33.8 °F 87% 29.73 in 6.0 mi ENE 11.5 mph - N/A   Overcast
11:33 AM 37.4 °F 30.3 °F 33.8 °F 87% 29.73 in 1.8 mi ENE 10.4 mph - N/A   Overcast
11:36 AM 35.6 °F 26.6 °F 33.8 °F 93% 29.73 in 0.2 mi ENE 13.8 mph 18.4 mph N/A Fog Fog
11:51 AM 35.6 °F 28.0 °F 33.8 °F 93% 29.73 in 0.2 mi ENE 10.4 mph - N/A Fog Fog
11:53 AM 35.1 °F 26.9 °F 34.0 °F 96% 29.75 in 0.2 mi NE 11.5 mph - N/A Fog Fog
12:25 PM 35.6 °F 28.0 °F 33.8 °F 93% 29.75 in 0.2 mi ENE 10.4 mph - N/A Fog Fog
12:37 PM 35.6 °F 29.2 °F 33.8 °F 93% 29.75 in 1.0 mi ENE 8.1 mph - N/A   Mist
12:45 PM 35.6 °F 28.0 °F 33.8 °F 93% 29.75 in 3.0 mi ENE 10.4 mph - N/A   Overcast
12:53 PM 36.0 °F 29.0 °F 34.0 °F 93% 29.77 in 10.0 mi ENE 9.2 mph - N/A   Overcast
1:13 PM 37.4 °F 31.4 °F 33.8 °F 87% 29.74 in 10.0 mi NE 8.1 mph - N/A   Overcast
1:20 PM 37.4 °F 30.3 °F 33.8 °F 87% 29.74 in 10.0 mi NNE 10.4 mph - N/A   Overcast
1:35 PM 39.2 °F 31.6 °F 30.2 °F 70% 29.74 in 10.0 mi North 12.7 mph - N/A   Overcast
1:53 PM 39.9 °F 32.9 °F 30.0 °F 68% 29.74 in 10.0 mi NNE 11.5 mph 17.3 mph N/A   Overcast
2:53 PM 33.1 °F 23.4 °F 25.0 °F 72% 29.81 in 10.0 mi NNE 13.8 mph 23.0 mph N/A   Overcast
3:53 PM 30.9 °F 21.2 °F 21.9 °F 69% 29.82 in 10.0 mi NNE 12.7 mph 19.6 mph N/A   Overcast
4:02 PM 30.2 °F 18.1 °F 21.2 °F 69% 29.76 in 10.0 mi NE 18.4 mph 26.5 mph N/A   Overcast
4:23 PM 28.4 °F 15.1 °F 19.4 °F 69% 29.77 in 2.5 mi NE 20.7 mph 27.6 mph 0.00 in Snow Light Snow
4:49 PM 26.6 °F 13.4 °F 19.4 °F 74% 29.77 in 8.0 mi NE 18.4 mph 27.6 mph 0.00 in Snow Light Snow
4:53 PM 27.0 °F 14.3 °F 19.0 °F 72% 29.86 in 4.0 mi NE 17.3 mph 27.6 mph 0.00 in Snow Light Snow
4:58 PM 26.6 °F 14.3 °F 19.4 °F 74% 29.77 in 1.8 mi NE 16.1 mph 25.3 mph 0.00 in Snow Light Snow
5:21 PM 24.8 °F 11.9 °F 17.6 °F 74% 29.79 in 2.5 mi NNE 16.1 mph 23.0 mph 0.00 in Snow Light Snow
5:28 PM 24.8 °F 12.9 °F 17.6 °F 74% 29.79 in 4.0 mi NE 13.8 mph 23.0 mph 0.00 in Snow Light Snow
5:37 PM 24.8 °F 12.9 °F 17.6 °F 74% 29.80 in 7.0 mi NE 13.8 mph 23.0 mph 0.00 in Snow Light Snow
5:45 PM 24.8 °F 11.9 °F 17.6 °F 74% 29.80 in 2.5 mi NE 16.1 mph 21.9 mph 0.00 in Snow Light Snow
5:52 PM 24.1 °F 12.5 °F 18.0 °F 77% 29.91 in 0.8 mi NE 12.7 mph 21.9 mph 0.00 in Snow Light Snow
6:13 PM 23.0 °F 11.7 °F 17.6 °F 80% 29.81 in 1.8 mi NNE 11.5 mph 23.0 mph 0.01 in Snow Light Snow
6:17 PM 23.0 °F 10.6 °F 17.6 °F 80% 29.81 in 3.0 mi NE 13.8 mph - 0.01 in Snow Light Snow
6:53 PM 21.9 °F 9.8 °F 15.1 °F 75% 29.94 in 10.0 mi NNE 12.7 mph 23.0 mph 0.01 in   Overcast
7:14 PM 21.2 °F 8.9 °F 15.8 °F 80% 29.83 in 1.8 mi NE 12.7 mph 23.0 mph 0.00 in Snow Light Snow
7:30 PM 19.4 °F 5.5 °F 14.0 °F 80% 29.83 in 2.0 mi NE 15.0 mph 21.9 mph 0.00 in Snow Light Snow
7:40 PM 19.4 °F 5.0 °F 14.0 °F 80% 29.83 in 5.0 mi NE 16.1 mph - 0.00 in Snow Light Snow
7:53 PM 19.9 °F 6.7 °F 12.9 °F 74% 29.94 in 6.0 mi NE 13.8 mph 20.7 mph 0.00 in Snow Light Snow
8:06 PM 19.4 °F 6.0 °F 12.2 °F 74% 29.85 in 2.5 mi NE 13.8 mph 21.9 mph 0.00 in Snow Light Snow
8:16 PM 17.6 °F 0.5 °F 12.2 °F 79% 29.86 in 1.0 mi NE 21.9 mph 29.9 mph 0.00 in Snow Light Snow
8:30 PM 17.6 °F 2.2 °F 12.2 °F 79% 29.87 in 0.8 mi NE 17.3 mph 24.2 mph 0.01 in Snow Light Snow
8:45 PM 17.6 °F 2.7 °F 12.2 °F 79% 29.88 in 0.5 mi NE 16.1 mph 26.5 mph 0.02 in Fog , Snow Snow
8:53 PM 16.0 °F 1.1 °F 12.0 °F 84% 29.99 in 0.5 mi NE 15.0 mph 25.3 mph 0.03 in Fog , Snow Snow
9:53 PM 15.1 °F -1.1 °F 10.9 °F 84% 29.97 in 0.5 mi NNE 17.3 mph 25.3 mph 0.06 in Fog , Snow Snow
10:14 PM 14.0 °F -2.0 °F 10.4 °F 86% 29.88 in 1.0 mi NNE 16.1 mph 27.6 mph 0.02 in Snow Light Snow
10:28 PM 14.0 °F -3.9 °F 8.6 °F 79% 29.87 in 1.8 mi NNE 20.7 mph 34.5 mph 0.02 in Snow Light Snow
10:53 PM 14.0 °F -4.3 °F 8.1 °F 77% 29.98 in 2.0 mi NNE 21.9 mph 32.2 mph 0.02 in Snow Light Snow
11:13 PM 12.2 °F -5.3 °F 6.8 °F 79% 29.88 in 3.0 mi NNE 18.4 mph 32.2 mph 0.00 in Snow Light Snow
11:23 PM 12.2 °F -5.8 °F 6.8 °F 79% 29.89 in 1.8 mi NNE 19.6 mph 32.2 mph 0.00 in Snow Light Snow
11:53 PM 12.9 °F -4.4 °F 8.1 °F 81% 30.01 in 1.0 mi NNE 18.4 mph 31.1 mph 0.00 in Snow Light Snow